Warning: filectime(): stat failed for /home/allspect/public_html/aero/motest-cam/timelapse-current.mp4 in /home/allspect/public_html/aero/motest-cam/index.php on line 35
All Spectrum Aviation Van Nuys Pilot Shop and Aircraft Supplies - KVNY

All Spectrum Aviation - Van Nuys Airport - KVNY

HOME

Condor Squadron KVNY Webcam

Visit our Electronics Store

Condor Squadron Webcam - Van Nuys Airport - KVNY
Picture taken: Sat, 22 May 2021 11:36:35 -0700
YouTube Channel!    Latest Timelapse Movie    Full Size Image    Regular Size Image    

2021/12/07 23:51 KVNY 072351Z VRB04KT 10SM CLR 17/08 A2995 RMK AO2 SLP136 T01720083 10183 20144 53000

HOME

Condor Squadron KVNY Webcam

Visit our Electronics Store